Powrót do katalogu

CZ-4C R/B

AktywnySSO
NORAD 59729·ROCKET BODY·🇨🇳 China

Wystrzelony May 11, 2024 z Jiuquan Satellite Launch Center

Loading…

Następne Przeloty (najbliższe 24 godziny)

TLE

ŚwieżeSource: Space-Track

Epoka: Sep 14, 2026, 13:27 UTC

1 59729U 24089B   26257.56060959  .00006035  00000-0  17682-3 0  9998
2 59729  97.6892 303.6332 0070856 288.6882  70.6677 15.33120676130341

Śledź CZ-4C R/B w czasie rzeczywistym z AllMySat

Download on the App Store